DW5212 Weather Reports


time (UTC)temp
C
wind
direction
speed
KPH
gust
KPH
rain 1hr
cm
rain 24hr
cm
rain mn
cm
humidity
%
barometer
mb
20260505002011 22 230 1.6 9.7 0.00 0.00 0.00 62 1011.1
20260505001508 22 204 1.6 8.0 0.00 0.00 0.00 62 1011.0
20260505001008 23 231 1.6 8.0 0.00 0.00 0.00 61 1011.1
20260505000506 23 46 1.6 12.9 0.00 0.00 0.00 61 1011.0
20260505000008 23 192 1.6 12.9 0.00 0.00 0.00 60 1011.0
20260504235507 23 248 1.6 6.4 0.00 0.00 0.00 60 1011.2
20260504235006 23 256 1.6 6.4 0.00 0.00 0.00 60 1011.3
20260504234507 23 126 1.6 6.4 0.00 0.00 0.00 60 1011.2
20260504233507 23 129 3.2 9.7 0.00 0.00 0.00 59 1011.4
20260504233009 23 193 4.8 11.3 0.00 0.00 0.00 58 1011.7
20260504232506 23 186 4.8 12.9 0.00 0.00 0.00 57 1011.5
20260504231507 23 181 4.8 11.3 0.00 0.00 0.00 57 1011.6
20260504230508 24 215 3.2 11.3 0.00 0.00 0.00 56 1011.8
20260504230009 24 243 3.2 11.3 0.00 0.00 0.00 56 1011.8
20260504225506 24 309 3.2 12.9 0.00 0.00 0.00 55 1011.8
20260504224509 24 194 4.8 16.1 0.00 0.00 0.00 53 1011.8
20260504223507 25 209 4.8 14.5 0.00 0.00 0.00 53 1011.9
20260504223010 25 171 3.2 6.4 0.00 0.00 0.00 54 1011.9
20260504222507 25 174 3.2 14.5 0.00 0.00 0.00 54 1011.9
20260504222009 25 159 4.8 14.5 0.00 0.00 0.00 53 1011.9
20260504221506 25 167 4.8 12.9 0.00 0.00 0.00 53 1012.0
20260504221008 25 210 3.2 14.5 0.00 0.00 0.00 53 1012.0
20260504220507 25 149 3.2 12.9 0.00 0.00 0.00 53 1012.1
20260504220010 25 240 3.2 12.9 0.00 0.00 0.00 53 1012.2
20260504215507 25 190 1.6 12.9 0.00 0.00 0.00 53 1012.4
20260504215008 25 5 3.2 17.7 0.00 0.00 0.00 52 1012.4
20260504214507 25 248 4.8 20.9 0.00 0.00 0.00 51 1012.4
20260504214009 25 224 4.8 20.9 0.00 0.00 0.00 50 1012.4
20260504213507 25 190 3.2 16.1 0.00 0.00 0.00 51 1012.6
20260504213009 25 255 4.8 12.9 0.00 0.00 0.00 51 1012.5
20260504212507 25 279 4.8 14.5 0.00 0.00 0.00 50 1012.6
20260504212007 26 175 4.8 19.3 0.00 0.00 0.00 50 1012.7
20260504211507 26 143 4.8 19.3 0.00 0.00 0.00 49 1012.6
20260504211009 26 92 4.8 14.5 0.00 0.00 0.00 49 1012.8
20260504210008 26 250 6.4 20.9 0.00 0.00 0.00 48 1012.9
20260504205506 26 209 6.4 20.9 0.00 0.00 0.00 50 1013.0
20260504205007 26 228 3.2 14.5 0.00 0.00 0.00 48 1013.1
20260504204506 26 214 3.2 12.9 0.00 0.00 0.00 50 1013.3
20260504204007 26 164 4.8 14.5 0.00 0.00 0.00 50 1013.2
20260504203506 26 217 6.4 17.7 0.00 0.00 0.00 48 1013.3
20260504203008 26 264 6.4 17.7 0.00 0.00 0.00 49 1013.5
20260504202505 26 107 6.4 16.1 0.00 0.00 0.00 48 1013.4
20260504201506 26 242 4.8 17.7 0.00 0.00 0.00 48 1013.7
20260504201006 26 175 4.8 17.7 0.00 0.00 0.00 49 1013.8
20260504200506 26 322 4.8 12.9 0.00 0.00 0.00 48 1013.8
20260504200009 26 244 6.4 19.3 0.00 0.00 0.00 48 1014.0
20260504195506 26 213 6.4 19.3 0.00 0.00 0.00 47 1014.1
20260504195007 26 300 4.8 17.7 0.00 0.00 0.00 49 1014.2
20260504194507 26 207 3.2 16.1 0.00 0.00 0.00 47 1014.3
20260504194008 26 194 3.2 12.9 0.00 0.00 0.00 49 1014.2
20260504193505 26 83 4.8 14.5 0.00 0.00 0.00 48 1014.5
20260504193007 26 150 6.4 14.5 0.00 0.00 0.00 47 1014.5
20260504192507 26 144 4.8 14.5 0.00 0.00 0.00 48 1014.5
20260504192006 26 227 4.8 19.3 0.00 0.00 0.00 47 1014.5
20260504191008 26 171 4.8 12.9 0.00 0.00 0.00 46 1014.6
20260504190507 26 157 4.8 16.1 0.00 0.00 0.00 49 1015.0
20260504190011 26 174 4.8 16.1 0.00 0.00 0.00 48 1015.2
20260504185008 26 18 4.8 14.5 0.00 0.00 0.00 46 1015.4
20260504184508 26 170 3.2 11.3 0.00 0.00 0.00 44 1015.5
20260504183507 26 139 4.8 16.1 0.00 0.00 0.00 47 1015.6
20260504183009 26 257 4.8 16.1 0.00 0.00 0.00 44 1015.7
20260504182509 26 219 4.8 16.1 0.00 0.00 0.00 46 1015.7
20260504181507 25 180 4.8 19.3 0.00 0.00 0.00 43 1015.9
20260504180508 25 69 3.2 12.9 0.00 0.00 0.00 47 1015.8
20260504180012 25 237 4.8 17.7 0.00 0.00 0.00 47 1015.9
20260504175506 25 304 4.8 17.7 0.00 0.00 0.00 44 1015.9
20260504175008 25 321 4.8 12.9 0.00 0.00 0.00 46 1015.9
20260504174506 25 188 6.4 19.3 0.00 0.00 0.00 46 1016.1
20260504174006 25 265 4.8 19.3 0.00 0.00 0.00 46 1016.1
20260504173507 25 248 4.8 16.1 0.00 0.00 0.00 46 1016.0
20260504173007 25 319 6.4 17.7 0.00 0.00 0.00 46 1016.3
20260504172506 25 217 4.8 17.7 0.00 0.00 0.00 46 1016.4
20260504172008 25 226 6.4 17.7 0.00 0.00 0.00 48 1016.5
20260504171506 25 269 8.0 20.9 0.00 0.00 0.00 46 1016.6
20260504170507 25 311 6.4 16.1 0.00 0.00 0.00 47 1016.7
20260504151007 22 167 6.4 16.1 0.00 0.00 0.00 61 1017.1
20260504150506 21 155 4.8 14.5 0.00 0.00 0.00 63 1017.3
20260504141006 16 170 3.2 8.0 0.00 0.00 0.00 84 1017.4
20260504140507 15 237 1.6 8.0 0.00 0.00 0.00 85 1017.6
20260504130506 11 180 0.0 3.2 0.00 0.00 0.00 92 1017.0
20260504110505 10 195 0.0 0.0 0.00 0.00 0.00 89 1017.0
20260504100506 11 195 0.0 0.0 0.00 0.00 0.00 88 1016.8
20260504082006 12 195 0.0 0.0 0.00 0.00 0.00 87 1017.2
20260504081505 12 195 0.0 0.0 0.00 0.00 0.00 87 1017.2
20260504081006 12 195 0.0 0.0 0.00 0.00 0.00 86 1017.2
20260504080505 12 195 0.0 0.0 0.00 0.00 0.00 86 1017.3
20260504050506 14 195 0.0 0.0 0.00 0.00 0.00 84 1018.4
20260504050013 14 195 0.0 0.0 0.00 0.00 0.00 83 1018.4
20260504045506 14 195 0.0 0.0 0.00 0.00 0.00 83 1018.4
20260504043507 15 195 0.0 0.0 0.00 0.00 0.00 83 1018.4
20260504041507 15 195 0.0 0.0 0.00 0.00 0.00 83 1018.5
20260504041008 15 195 0.0 0.0 0.00 0.00 0.00 83 1018.6
20260504040506 15 195 0.0 0.0 0.00 0.00 0.00 83 1018.5
20260504040010 15 195 0.0 0.0 0.00 0.00 0.00 83 1018.5
20260504035007 15 195 0.0 3.2 0.00 0.00 0.00 83 1018.6
20260504034508 15 194 0.0 3.2 0.00 0.00 0.00 82 1018.6
20260504034009 15 231 0.0 3.2 0.00 0.00 0.00 82 1018.6
20260504033507 15 231 0.0 3.2 0.00 0.00 0.00 82 1018.6
20260504033010 15 220 0.0 3.2 0.00 0.00 0.00 82 1018.6
20260504032507 15 201 0.0 1.6 0.00 0.00 0.00 81 1018.6
20260504032009 15 201 0.0 3.2 0.00 0.00 0.00 81 1018.5
20260504031507 15 55 0.0 0.0 0.00 0.00 0.00 81 1018.5
20260504031010 16 55 0.0 0.0 0.00 0.00 0.00 81 1018.5
20260504030010 16 55 0.0 0.0 0.00 0.00 0.00 80 1018.5
20260504025507 16 56 0.0 0.0 0.00 0.00 0.00 80 1018.3
20260504025009 16 56 0.0 0.0 0.00 0.00 0.00 80 1018.3
20260504024508 16 56 0.0 0.0 0.00 0.00 0.00 80 1018.3
20260504024008 16 44 0.0 0.0 0.00 0.00 0.00 79 1018.3
20260504023508 16 44 0.0 0.0 0.00 0.00 0.00 79 1018.2
20260504022009 16 43 0.0 0.0 0.00 0.00 0.00 78 1018.2
20260504021508 17 43 0.0 0.0 0.00 0.00 0.00 78 1018.1
20260504021008 17 43 0.0 0.0 0.00 0.00 0.00 77 1018.1
20260504020506 17 43 0.0 0.0 0.00 0.00 0.00 77 1018.0
20260504020010 17 43 0.0 0.0 0.00 0.00 0.00 76 1018.0
20260504015507 17 43 0.0 0.0 0.00 0.00 0.00 75 1017.9
20260504015008 17 43 0.0 0.0 0.00 0.00 0.00 75 1017.7
20260504014007 18 43 0.0 0.0 0.00 0.00 0.00 74 1017.7
20260504013506 18 43 0.0 0.0 0.00 0.00 0.00 74 1017.6
20260504013008 18 43 0.0 0.0 0.00 0.00 0.00 74 1017.6
20260504012507 18 43 0.0 0.0 0.00 0.00 0.00 73 1017.6
20260504012008 18 43 0.0 1.6 0.00 0.00 0.00 72 1017.5
20260504011507 19 43 0.0 1.6 0.00 0.00 0.00 72 1017.4
20260504011008 19 43 0.0 0.0 0.00 0.00 0.00 72 1017.4
20260504010507 19 43 0.0 0.0 0.00 0.00 0.00 71 1017.1
20260504010009 20 43 0.0 0.0 0.00 0.00 0.00 70 1017.0
20260504005506 20 43 0.0 0.0 0.00 0.00 0.00 69 1017.1
20260504005007 20 43 0.0 0.0 0.00 0.00 0.00 69 1016.9
20260504004507 20 43 0.0 0.0 0.00 0.00 0.00 68 1017.0
20260504004008 20 43 0.0 0.0 0.00 0.00 0.00 68 1017.0
20260504003507 21 43 0.0 1.6 0.00 0.00 0.00 68 1017.1
20260504003009 21 43 0.0 1.6 0.00 0.00 0.00 67 1017.0
20260504002506 21 43 0.0 0.0 0.00 0.00 0.00 67 1017.1